Location: Cambroso
(45.2833°N, 12.0850°E)
Time: 16:11:12
(UTC+00:00)

COSMOS 2455 - Pass Details

Date: 21 January 2021
Orbit: 901 x 908 km, 67.1° (Epoch: 26 February)

Event Time Altitude Azimuth Distance (km) Brightness Sun altitude
Rises 17:44:38 0° 224° (SW) 3,521 6.8 -17.6°
Reaches altitude 10° 17:47:11 10° 229° (SW) 2,584 6.1 -18.0°
Maximum altitude 17:53:04 57° 307° (NW) 1,067 3.4 -19.0°
Enters shadow 17:58:21 13° 24° (NNE) 2,363 4.7 -20.0°
